Regional Weather Roundup
Issued by NWS Kansas City/Pleasant Hill, MO

Home | Current Version | Previous Version | Graphics & Text | Print | Product List | Glossary Off
Versions: 1 2 3 4 5 6 7 8 9 10 11 12 13 14 15 16 17 18 19 20 21 22 23 24 25 26 27 28 29 30 31 32 33 34 35 36 37 38 39 40 41 42 43 44 45 46 47 48 49 50

000
ASUS43 KEAX 070810
RWREAX

WEATHER ROUNDUP FOR EASTERN KANSAS AND NORTHWEST MISSOURI
NATIONAL WEATHER SERVICE KANSAS CITY/PLEASANT HILL MO
300 AM CDT TUE JUL 07 2015

KSZ040-057-103>105-MOZ028-029-037-043-070900-
...KANSAS CITY METROPOLITAN AREA...

CITY           SKY/WX    TMP DP  RH WIND       PRES   REMARKS
K.C. INTL      HVY RAIN  61  60  97 NE21G30   30.00R FOG
K.C. DOWNTOWN  HVY RAIN  65  64  97 N10       29.98R FOG
LEES SUMMIT    RAIN      65  64  97 N22       29.97R FOG
OLATHE - IXD   CLOUDY    65  65 100 N14       29.97S FOG
OLATHE - OJC   LGT RAIN  64  63  96 N22G28    29.96S
LAWRENCE       HVY RAIN  63  61  93 N10G21    30.00R FOG

$$

MOZ001>008-011>017-020>025-030>033-038>040-044>046-053-054-070900-
...NORTHERN AND CENTRAL MISSOURI...

CITY           SKY/WX    TMP DP  RH WIND       PRES   REMARKS
ST. JOSEPH     CLOUDY    66  64  93 MISG      30.01R FOG
MOSBY          DRIZZLE   63  61  94 N17G23    29.99R
WARRENSBURG    DRIZZLE   70  70 100 W3        29.94R
WHITEMAN AFB   LGT RAIN  72  72 100 NW10      29.94S FOG
CLINTON        CLOUDY    73  72  94 NW6       29.93F
SEDALIA        LGT RAIN  73  70  90 W7        29.94S
WARSAW         NOT AVBL
CHILLICOTHE      N/A     64  61  90 N8        29.99R
KIRKSVILLE     CLOUDY    65  60  84 N10       29.96R HAZE

$$

MOZ041-047>049-056>058-063>065-088>090-097-070900-
...EASTERN AND SOUTHERN MISSOURI...

CITY           SKY/WX    TMP DP  RH WIND       PRES   REMARKS
ST. LOUIS INTL CLOUDY    81  72  74 SW14      29.88F
SPIRIT OF STL  CLOUDY    80  73  79 SW10G17   29.87S
COLUMBIA       HVY RAIN  72  71  97 SW3       29.92S FOG
JEFFERSON CITY CLOUDY    73  71  93 S6        29.91S
ROLLA          RAIN      70  69  97 W10       29.94S FOG
OSAGE BEACH    CLOUDY    72  68  88 SW3       29.95R
SPRINGFIELD    CLOUDY    74  72  93 N5        29.95S
BRANSON        CLOUDY    77  68  73 SW5       29.96S
JOPLIN         LGT RAIN  72  71  97 SE5       29.94S
WEST PLAINS    CLOUDY    77  71  82 SW8       29.98S

$$

IAZ060-094-KSZ022-034>040-054-083-096-NEZ052-066-093-070900-
...KANSAS...SOUTHEAST NEBRASKA AND IOWA...

CITY           SKY/WX    TMP DP  RH WIND       PRES   REMARKS
TOPEKA         RAIN      63  62  97 NE6       30.01R FOG
MANHATTAN      CLOUDY    69  62  78 NE14G21   30.03R HAZE
EMPORIA        CLOUDY    63  62  97 N16G24    29.98R FOG
CHANUTE        CLOUDY    72  71  97 CALM      29.94F
WICHITA        LGT RAIN  68  64  87 N21G29    29.99S FOG
OMAHA          CLEAR     59  53  80 N8        30.09R
LINCOLN        CLEAR     60  56  86 N8        30.11R FOG
FALLS CITY     CLOUDY    66  60  81 N12       30.02S HAZE
LAMONI         MOCLDY    65  60  84 N12       30.00R HAZE
DES MOINES     PTCLDY    64  53  67 N13       30.01R

$$




USA.gov is the U.S. government's official web portal to all federal, state and local government web resources and services.